Погода в Сажино

Россия / Курганская область     55°05′56″N   63°21′06″E
темп.,
°C
ветер,
м/с
пор.,
м/с
влажн.,
%
обл.,
%
осадки,
мм/ч
давл.,
гПа
погр.,
м
6 марта, сб
сб623:00−2зсз6996100 3.3 999459
02:00−6зсз61288100 0.9 1002559
05:00−11з6138850 0.9 1008308
08:00−16з47920 0.0 101099
11:00−11зюз47880 0.0 1011247
14:00−8зюз59880 0.0 1011499
17:00−7юз598718 0.0 1010327
20:00−11юз510880 0.0 1011158
7 марта, вс
вс723:00−12зюз478912 0.0 1013113
02:00−13юз239078 0.0 101320
05:00−14ююз129089 0.0 101320
08:00−13юв2292100 0.0 101225
11:00−10юв2393100 0.1 1010227
14:00−8в3495100 1.3 1006319
17:00−8ссв5795100 2.9 1003402
20:00−9ссз71194100 1.9 1002464
8 марта, пн
пн823:00−11сз6129297 2.3 1006437
02:00−18зсз479654 0.0 1009125
05:00−20з469452 0.0 101188
08:00−20юз34920 0.0 101156
11:00−14ююз6108650 0.0 1011307
14:00−10ююз81490100 0.0 1009671
17:00−7юз91588100 0.4 1008943
20:00−7ююз81590100 0.1 1007694
9 марта, вт
вт923:00−6ююз81587100 0.1 1007592
02:00−7юз71689100 0.0 1006552
05:00−7ююз71589100 0.0 1005494
08:00−6ююз71492100 0.0 1005605
11:00−5юз71293100 0.6 1004811
14:00−3зсз7991100 1.5 1005795
17:00−4з5108067 1.6 1007427
20:00−10зюз34860 0.0 100940
10 марта, ср
ср1023:00−13з338814 0.0 101121
02:00−14з348886 0.0 101236
05:00−17з338991 0.0 101321
08:00−18з339096 0.0 101332
11:00−14зсз468898 0.0 1013276
14:00−12сз348462 0.0 1012392
17:00−12сз229152 0.0 101159
20:00−16сз1292100 0.0 101220